KB1KVS Weather Reports


Display with metric or nautical units.
time (UTC)temp
F
wind
direction
speed
MPH
gust
MPH
rain 1hr
in
rain 24hr
in
rain mn
in
humidity
%
barometer
mb
20201029132518 47 315 2.0 4.0 0.00 0.08 0.00 96 1011.6
20201029131523 47 315 2.0 3.0 0.00 0.08 0.00 96 1011.6
20201029130520 47 293 1.0 3.0 0.00 0.08 0.00 96 1011.6
20201029125518 46 315 1.0 2.0 0.00 0.08 0.00 96 1011.6
20201029124545 46 0 2.0 4.0 0.00 0.08 0.00 96 1011.5
20201029123517 46 23 1.0 3.0 0.00 0.08 0.00 96 1011.5
20201029122524 46 0 2.0 5.0 0.00 0.08 0.00 96 1011.4
20201029121521 46 0 4.0 7.0 0.00 0.08 0.00 96 1011.7
20201029120517 46 0 3.0 6.0 0.00 0.08 0.00 96 1011.7
20201029115526 46 0 2.0 5.0 0.00 0.08 0.00 96 1011.7
20201029114524 45 0 4.0 6.0 0.00 0.08 0.00 96 1011.8
20201029113525 45 0 3.0 6.0 0.00 0.08 0.00 96 1011.9
20201029112532 45 0 3.0 7.0 0.00 0.08 0.00 96 1011.9
20201029111529 45 0 4.0 6.0 0.00 0.08 0.00 96 1012.1
20201029110526 45 0 3.0 5.0 0.00 0.08 0.00 96 1012.1
20201029105524 45 338 3.0 5.0 0.00 0.08 0.00 96 1012.0
20201029104526 45 0 3.0 6.0 0.00 0.08 0.00 96 1012.2
20201029103517 45 338 2.0 4.0 0.00 0.08 0.00 96 1012.2
20201029102520 45 338 2.0 5.0 0.00 0.08 0.00 96 1012.1
20201029101520 45 0 3.0 5.0 0.00 0.08 0.00 96 1012.1
20201029100520 45 0 2.0 4.0 0.00 0.08 0.00 96 1012.0
20201029095517 45 0 2.0 4.0 0.00 0.08 0.00 96 1011.8
20201029094525 45 0 3.0 5.0 0.00 0.08 0.00 96 1011.9
20201029093516 45 0 3.0 5.0 0.00 0.08 0.00 96 1012.0
20201029092525 45 0 2.0 4.0 0.00 0.08 0.00 96 1012.1
20201029091521 45 0 3.0 5.0 0.00 0.08 0.00 96 1012.1
20201029090522 45 0 3.0 5.0 0.00 0.08 0.00 96 1012.1
20201029085522 45 338 3.0 5.0 0.00 0.08 0.00 96 1012.1
20201029084550 45 338 2.0 4.0 0.00 0.08 0.00 96 1012.2
20201029083521 45 338 2.0 4.0 0.00 0.08 0.00 96 1012.3
20201029082519 45 338 3.0 5.0 0.00 0.08 0.00 96 1012.5
20201029081527 45 315 3.0 6.0 0.00 0.08 0.00 96 1012.4
20201029080530 45 315 2.0 5.0 0.00 0.08 0.00 96 1012.3
20201029075518 46 315 3.0 4.0 0.00 0.08 0.00 96 1012.3
20201029074521 46 338 2.0 4.0 0.00 0.08 0.00 96 1012.2
20201029073529 46 338 3.0 6.0 0.00 0.08 0.00 96 1012.2
20201029072527 46 315 4.0 7.0 0.00 0.08 0.00 96 1012.4
20201029071555 46 315 4.0 11.0 0.00 0.08 0.00 96 1012.3
20201029070522 46 338 5.0 8.0 0.00 0.08 0.00 96 1012.4
20201029065516 46 338 5.0 9.0 0.00 0.08 0.00 96 1012.3
20201029064524 46 338 3.0 9.0 0.00 0.08 0.00 96 1012.3
20201029063520 46 338 5.0 7.0 0.00 0.08 0.00 96 1012.1
20201029062517 46 338 4.0 7.0 0.00 0.08 0.00 96 1011.9
20201029061530 46 338 5.0 10.0 0.00 0.08 0.00 96 1011.9
20201029060516 46 338 4.0 8.0 0.00 0.08 0.00 96 1012.0
20201029055519 46 315 4.0 9.0 0.00 0.08 0.00 96 1012.1
20201029054531 46 315 4.0 7.0 0.00 0.08 0.00 96 1012.3
20201029053517 46 338 4.0 7.0 0.00 0.08 0.00 96 1012.3
20201029052517 46 338 4.0 9.0 0.00 0.08 0.00 96 1012.2
20201029051528 47 338 3.0 6.0 0.00 0.08 0.00 96 1012.4
20201029050518 47 338 3.0 6.0 0.00 0.08 0.00 96 1012.3
20201029045527 47 338 2.0 4.0 0.00 0.08 0.00 96 1012.3
20201029044526 47 338 3.0 6.0 0.00 0.08 0.00 96 1012.2
20201029043523 47 338 3.0 7.0 0.00 0.08 0.00 96 1012.2
20201029042517 47 338 3.0 7.0 0.00 0.08 0.00 96 1012.2
20201029041522 47 315 4.0 8.0 0.00 0.08 0.00 96 1012.4
20201029040524 47 315 3.0 7.0 0.00 0.08 0.00 96 1012.4
20201029035527 46 315 4.0 9.0 0.00 0.08 0.08 96 1012.3
20201029034524 46 338 3.0 6.0 0.00 0.08 0.08 96 1012.3
20201029033519 46 338 3.0 8.0 0.00 0.08 0.08 96 1012.2
20201029032518 46 315 3.0 7.0 0.00 0.08 0.08 96 1012.4
20201029031530 46 315 4.0 8.0 0.00 0.09 0.08 96 1012.4
20201029030518 46 338 4.0 9.0 0.00 0.09 0.08 96 1012.2
20201029025527 46 315 4.0 8.0 0.00 0.09 0.08 96 1012.3
20201029024517 46 338 5.0 7.0 0.00 0.09 0.08 96 1012.5
20201029023522 46 315 5.0 9.0 0.00 0.09 0.08 96 1012.6
20201029022517 45 0 2.0 4.0 0.00 0.09 0.08 96 1012.5
20201029021531 45 338 2.0 3.0 0.00 0.09 0.08 96 1012.4
20201029020519 45 338 2.0 5.0 0.00 0.09 0.08 96 1012.5
20201029015518 45 338 3.0 5.0 0.00 0.09 0.08 96 1012.4
20201029014519 45 0 2.0 5.0 0.00 0.09 0.08 96 1012.5
20201029013519 45 338 4.0 10.0 0.00 0.09 0.08 96 1012.5
20201029012547 45 338 3.0 4.0 0.00 0.09 0.08 95 1012.7
20201029011546 45 315 2.0 8.0 0.00 0.09 0.08 95 1012.7
20201029010539 45 90 2.0 4.0 0.00 0.09 0.08 95 1012.6
20201029005535 45 338 2.0 6.0 0.00 0.09 0.08 95 1012.9
20201029004520 45 338 3.0 4.0 0.00 0.09 0.08 95 1012.9
20201029003526 46 113 2.0 3.0 0.00 0.09 0.08 95 1012.5
20201029002520 46 0 3.0 7.0 0.01 0.09 0.08 95 1012.6
20201029001522 46 0 2.0 5.0 0.01 0.09 0.08 95 1012.6
20201029000521 46 0 2.0 4.0 0.01 0.09 0.08 95 1012.7
20201028235521 47 0 2.0 4.0 0.01 0.09 0.08 95 1013.0
20201028234553 47 0 4.0 11.0 0.01 0.09 0.08 95 1012.9
20201028233521 47 0 4.0 8.0 0.01 0.09 0.08 95 1012.8
20201028232521 47 0 4.0 10.0 0.00 0.08 0.07 95 1012.7
20201028231521 47 0 3.0 8.0 0.00 0.08 0.07 95 1012.3
20201028230522 48 338 4.0 9.0 0.00 0.08 0.07 95 1012.3
20201028225534 48 338 5.0 8.0 0.00 0.08 0.07 95 1012.3
20201028224519 48 0 3.0 9.0 0.00 0.08 0.07 95 1012.4
20201028223516 49 338 4.0 7.0 0.00 0.08 0.07 95 1012.4
20201028222520 49 0 3.0 7.0 0.00 0.08 0.07 95 1012.2
20201028221531 50 0 2.0 9.0 0.00 0.08 0.07 96 1012.0
20201028220524 50 45 1.0 3.0 0.01 0.08 0.07 95 1011.8
20201028215522 50 338 2.0 5.0 0.01 0.08 0.07 95 1011.8
20201028214525 50 90 1.0 2.0 0.01 0.08 0.07 95 1011.6
20201028213533 50 45 1.0 6.0 0.01 0.08 0.07 95 1011.8
20201028212529 50 90 2.0 4.0 0.02 0.08 0.07 95 1011.8
20201028211521 50 90 1.0 3.0 0.02 0.08 0.07 95 1011.9
20201028210537 50 90 2.0 5.0 0.01 0.07 0.06 95 1011.8
20201028205527 50 90 3.0 6.0 0.01 0.07 0.06 95 1011.8
20201028204536 50 90 1.0 4.0 0.01 0.07 0.06 95 1011.9
20201028203519 51 90 2.0 4.0 0.02 0.07 0.06 95 1012.0
20201028202520 51 90 2.0 5.0 0.01 0.06 0.05 95 1011.9
20201028201532 51 180 3.0 10.0 0.01 0.06 0.05 95 1012.0
20201028200524 50 135 4.0 10.0 0.01 0.06 0.05 95 1012.1
20201028195516 51 158 10.0 13.0 0.01 0.06 0.05 95 1012.0
20201028194529 51 158 11.0 13.0 0.01 0.06 0.05 95 1012.0
20201028193518 51 180 10.0 12.0 0.00 0.05 0.04 95 1012.1
20201028192520 51 158 10.0 42.0 0.00 0.05 0.04 94 1012.1
20201028191530 51 180 10.0 13.0 0.00 0.05 0.04 94 1012.3
20201028190517 51 158 10.0 13.0 0.00 0.05 0.04 94 1012.5
20201028185520 51 158 8.0 14.0 0.00 0.05 0.04 94 1012.5
20201028184519 50 158 8.0 13.0 0.00 0.05 0.04 94 1012.8
20201028183515 50 158 9.0 15.0 0.00 0.05 0.04 94 1012.8
20201028182518 50 158 9.0 17.0 0.00 0.05 0.04 94 1013.0
20201028181523 50 158 7.0 14.0 0.00 0.05 0.04 94 1013.3
20201028180516 50 158 7.0 12.0 0.00 0.05 0.04 94 1013.4
20201028175521 50 158 9.0 16.0 0.01 0.05 0.04 94 1013.6
20201028174530 50 158 8.0 16.0 0.01 0.05 0.04 94 1013.9
20201028173516 50 158 9.0 14.0 0.02 0.05 0.04 93 1014.2
20201028172521 50 158 7.0 14.0 0.02 0.05 0.04 93 1014.5
20201028171552 50 158 7.0 13.0 0.02 0.05 0.04 93 1014.6
20201028170527 50 158 5.0 9.0 0.02 0.05 0.04 92 1014.8
20201028165520 50 180 5.0 10.0 0.01 0.04 0.03 92 1015.1
20201028164523 50 158 4.0 10.0 0.01 0.04 0.03 92 1015.3
20201028163523 50 158 6.0 13.0 0.00 0.03 0.02 92 1015.4
20201028162529 50 158 4.0 10.0 0.01 0.03 0.02 92 1015.7
20201028161525 50 158 4.0 9.0 0.01 0.03 0.02 91 1015.9
20201028160526 50 158 5.0 10.0 0.01 0.03 0.02 91 1016.0
20201028155534 50 158 4.0 9.0 0.01 0.03 0.02 90 1016.0
20201028154517 49 158 4.0 8.0 0.02 0.03 0.02 90 1016.1
20201028153518 49 158 4.0 8.0 0.02 0.03 0.02 90 1016.2
20201028152525 49 158 3.0 8.0 0.01 0.02 0.01 89 1016.3
20201028151520 49 158 3.0 8.0 0.01 0.02 0.01 89 1016.7
20201028150518 49 158 4.0 10.0 0.01 0.02 0.01 88 1017.0
20201028145515 49 158 5.0 9.0 0.01 0.02 0.01 88 1017.0
20201028144534 49 158 4.0 7.0 0.00 0.01 0.00 88 1017.1
20201028143516 49 158 4.0 8.0 0.00 0.01 0.00 87 1017.1
20201028142523 48 158 6.0 12.0 0.00 0.01 0.00 88 1017.1
20201028141530 48 158 4.0 8.0 0.00 0.01 0.00 89 1017.2
20201028140520 48 158 5.0 10.0 0.00 0.01 0.00 90 1017.2
20201028135524 47 158 4.0 8.0 0.00 0.01 0.00 91 1017.5
20201028134524 47 158 2.0 6.0 0.00 0.01 0.00 91 1017.4
20201028133519 46 45 1.0 2.0 0.00 0.01 0.00 91 1017.8